Weather History for KNBT - November, 2013

Change the Weather History Date:

Sunday, November 3, 2013

  Actual Average (KMRH) Record (KMRH)
Temperature  
Mean Temperature 59 °F -  
Max Temperature 64 °F 74 °F 82 °F (1974)
Min Temperature 55 °F 51 °F 30 °F (1976)
Degree Days  
Heating Degree Days 6    
Growing Degree Days 9 (Base 50)    
Moisture  
Dew Point 44 °F    
Average Humidity 57    
Maximum Humidity 72    
Minimum Humidity 45    
Precipitation  
Precipitation 0.00 in - - ()
Sea Level Pressure  
Sea Level Pressure 30.12 in    
Wind  
Wind Speed 15 mph (North)    
Max Wind Speed 18 mph    
Max Gust Speed 28 mph    
Averages and records for this station are not official NWS values.
T = Trace of Precipitation, MM = Missing Value Source: NWS Daily Summary

Daily Weather History Graph

Daily Weather History Graph

Search for Another Location

Airport or City:

Trip Planner

Search our weather history database for the weather conditions in past years. The results will help you decide how hot, cold, wet, or windy it might be!

Date:

Astronomy

Nov. 03, 2013 Rise Set
Actual Time 6:28 AM EST 5:09 PM EST
Civil Twilight 6:02 AM EST 5:35 PM EST
Nautical Twilight 5:32 AM EST 6:05 PM EST
Astronomical Twilight 5:03 AM EST 6:35 PM EST
Moon 6:29 AM EST 5:23 PM EST
Length of Visible Light 11h 33m
Length of Day
10h 40m
New Moon, 0% of the Moon is Illuminated
Nov 3
New Moon
Nov 10
First Quarter
Nov 17
Full
Nov 25
Last Quarter
Dec 2
New

Hourly Weather History & Observations

Time (EST) Temp. Dew Point Humidity Pressure Visibility Wind Dir Wind Speed Gust Speed Precip Events Conditions
12:56 AM 63.0 °F 54.0 °F 72% 29.88 in - WNW 13.8 mph - N/A   Scattered Clouds
1:56 AM 60.1 °F 50.0 °F 69% 29.90 in - WNW 17.3 mph 21.9 mph N/A   Clear
1:56 AM 61.0 °F 51.1 °F 70% 29.90 in - North 18.4 mph 26.5 mph N/A   Mostly Cloudy
2:56 AM 60.1 °F 48.0 °F 64% 29.93 in - North 16.1 mph 26.5 mph N/A   Clear
3:56 AM 59.0 °F 46.9 °F 64% 29.96 in - North 13.8 mph - N/A   Clear
4:56 AM 57.9 °F 46.0 °F 65% 29.99 in - North 13.8 mph - N/A   Clear
5:56 AM 57.0 °F 44.1 °F 62% 30.01 in - North 12.7 mph - N/A   Clear
6:56 AM 57.0 °F 46.9 °F 69% 30.05 in - NNW 11.5 mph - N/A   Clear
7:56 AM 57.9 °F 46.0 °F 65% 30.09 in - NNW 15.0 mph 20.7 mph N/A   Clear
8:56 AM 59.0 °F 44.1 °F 58% 30.12 in - NNW 18.4 mph - N/A   Clear
9:56 AM 60.1 °F 41.0 °F 49% 30.13 in - North 18.4 mph 27.6 mph N/A   Clear
10:56 AM 61.0 °F 42.1 °F 50% 30.15 in - North 16.1 mph - N/A   Clear
11:56 AM 62.1 °F 42.1 °F 48% 30.15 in - North 13.8 mph - N/A   Clear
12:56 PM 62.1 °F 42.1 °F 48% 30.14 in - NNW 13.8 mph - N/A   Clear
1:56 PM 63.0 °F 41.0 °F 45% 30.15 in - North 13.8 mph - N/A   Clear
2:56 PM 63.0 °F 42.1 °F 46% 30.16 in - North 13.8 mph - N/A   Clear
3:56 PM 63.0 °F 43.0 °F 48% 30.18 in - North 15.0 mph - N/A   Clear
4:56 PM 61.0 °F 42.1 °F 50% 30.20 in - North 12.7 mph - N/A   Clear
5:56 PM 60.1 °F 41.0 °F 49% 30.23 in - North 15.0 mph - N/A   Clear
6:56 PM 59.0 °F 42.1 °F 53% 30.26 in - North 12.7 mph 20.7 mph N/A   Clear
7:56 PM 57.9 °F 45.0 °F 62% 30.28 in - NNE 15.0 mph - N/A   Clear
8:56 PM 57.0 °F 45.0 °F 64% 30.31 in - North 16.1 mph 26.5 mph N/A   Clear
9:56 PM 55.9 °F 39.0 °F 53% 30.34 in - North 18.4 mph 27.6 mph N/A   Clear
10:56 PM 55.0 °F 39.0 °F 55% 30.33 in - NNE 17.3 mph 26.5 mph N/A   Clear